[[{"header":{"parameterUnit":"m.s-1","parameterCategory":1,"la1":30.2991,"la2":30.254,"lo1":-89.0895,"lo2":-89.0444,"dy":0.0017,"dx":0.0017,"nx":28,"ny":28,"refTime":"2023-08-26T03:00:00:Z","depth":0,"parameterNumber":2,"parameterNumberName":"U-component_of_WINDS"},"data":[0,0,0,0,0,0,0,0,0,0,0,0,0,0,0,0,0,0,0,0,0,0,0,0,0,0,0,0,0,0,0,0,0,0,0,0,0,0,0,0,0,0,0,0,0,0,0,0,0,0,0,0,0,0,0,0,0,0,-1.3408,-1.3401,0,-1.2713,-1.2705,-1.2697,-1.2363,-1.2363,-1.2363,-1.2364,-1.1623,-1.1603,-1.1584,0,0,0,0,0,0,0,0,0,0,0,0,0,-1.4409,-1.4393,-1.3409,-1.34,-1.3391,-1.2715,-1.2705,-1.2695,-1.2363,-1.2363,-1.2363,-1.2364,-1.1629,-1.1606,-1.1582,0,0,0,0,0,0,0,0,0,0,0,0,0,-1.387,-1.4387,-1.341,-1.3145,-1.3114,-1.2717,-1.2705,-1.2693,-1.2363,-1.2363,-1.2364,-1.2364,-1.1637,-1.1608,-1.1578,-1.1384,0,0,-1.1487,-1.1474,0,0,0,0,0,0,0,0,-1.3901,-1.3834,-1.3192,-1.3162,-1.3127,-1.2626,-1.2786,-1.2253,-1.2362,-1.2647,-1.2364,-1.2364,-1.1954,-1.1898,-1.1766,-1.1349,-1.1317,-1.1484,-1.1466,-1.1453,-1.1444,0,0,0,0,0,0,0,-1.3939,-1.3861,-1.3132,-1.3183,-1.3143,-1.3047,-1.2971,-1.2683,-1.2305,-1.2622,-1.2596,-1.252,-1.1936,-1.1796,-1.1746,-1.1306,-1.1485,-1.1458,-1.144,-1.1428,-1.068,-1.0679,0,0,0,0,0,0,-1.4024,-1.3895,-1.3154,-1.3112,-1.3524,-1.3029,-1.2944,-1.2786,-1.2308,-1.2236,-1.2521,-1.2507,-1.1847,-1.1781,-1.1719,-1.1452,-1.1453,-1.1425,-1.1408,-1.0682,-1.068,-1.0678,0,0,0,0,0,0,-1.4047,-1.3962,-1.3182,-1.3496,-1.339,-1.3012,-1.2836,-1.2772,-1.2631,-1.2232,-1.2159,-1.2449,-1.1844,-1.1761,-1.1468,-1.1422,-1.1412,-1.1384,-1.0684,-1.0682,-1.0679,-1.0924,0,0,0,0,0,0,-1.4078,-1.3972,-1.3904,-1.3498,-1.3375,-1.2957,-1.2834,-1.2758,-1.2584,-1.256,-1.2145,-1.2076,-1.1838,-1.1515,-1.1439,-1.138,-1.1361,-1.0687,-1.0683,-1.068,-1.0918,-1.093,-1.094,0,0,0,0,0,-1.4115,-1.3996,-1.3903,-1.3815,-1.3284,-1.2955,-1.2883,-1.262,-1.2582,-1.2503,-1.2244,-1.209,-1.144,-1.1488,-1.1399,-1.1331,-1.0688,-1.0684,-1.068,-1.0913,-1.0928,-1.094,0,0,0,0,0,0,-1.4398,-1.3939,-1.3829,-1.3579,-1.331,-1.29,-1.2794,-1.2645,-1.2373,-1.2361,-1.2036,-1.1945,-1.168,-1.1474,-1.1537,-1.111,-1.1048,-1.1026,-1.1256,-1.1266,-1.1277,-1.1331,-1.1336,0,0,0,0,0,-1.4434,-1.4217,-1.3822,-1.3638,-1.3509,-1.3176,-1.3022,-1.2843,-1.2547,-1.2428,-1.2148,-1.1858,-1.1585,-1.1414,-1.1143,-1.0886,-1.0784,-1.0793,-1.0805,-1.0815,-1.0799,-1.0637,-1.0634,-1.0664,-1.0664,-1.0664,0,0,-1.45,-1.4222,-1.4104,-1.3688,-1.3458,-1.3229,-1.3082,-1.2847,-1.2669,-1.2388,-1.2098,-1.1881,-1.1533,-1.1257,-1.112,-1.1077,-1.0768,-1.081,-1.0822,-1.0799,-1.0632,-1.063,-1.0628,-1.0661,-1.0662,-1.0662,0,0,-1.4506,-1.4278,-1.4097,-1.387,-1.3527,-1.3304,-1.3261,-1.287,-1.2718,-1.2423,-1.2205,-1.1981,-1.1525,-1.1284,-1.1102,-1.1006,-1.0849,-1.0925,-1.0981,-1.0827,-1.0824,-1.082,-1.0779,-1.0769,-1.091,-1.0911,-1.0911,0,-1.463,-1.4289,-1.402,-1.3797,-1.3614,-1.3357,-1.3163,-1.2951,-1.2533,-1.2407,-1.2367,-1.1782,-1.153,-1.1189,-1.1166,-1.1028,-1.0958,-1.0972,-1.0849,-1.0842,-1.0834,-1.079,-1.0777,-1.0922,-1.0921,-1.092,-1.0919,0,-1.4453,-1.4218,-1.411,-1.3723,-1.3527,-1.332,-1.3007,-1.2839,-1.2673,-1.2451,-1.2144,-1.1832,-1.149,-1.1395,-1.1229,-1.1025,-1.1009,-1.0914,-1.0843,-1.0847,-1.08,-1.0782,-1.0938,-1.0934,-1.0931,-1.0928,0,0,-1.4623,-1.4087,-1.4052,-1.3869,-1.3467,-1.3273,-1.3046,-1.272,-1.2578,-1.2294,-1.2088,-1.1703,-1.161,-1.1403,-1.1205,-1.1071,-1.1004,-1.0987,-1.0974,-1.0998,-1.075,-1.0824,-1.081,-1.0898,-1.0894,-1.0891,-1.0777,0,-1.4569,-1.4168,-1.3915,-1.3608,-1.338,-1.3127,-1.2927,-1.2652,-1.2435,-1.2199,-1.1953,-1.1684,-1.1585,-1.1457,-1.1313,-1.1045,-1.095,-1.1049,-1.0693,-1.0684,-1.0788,-1.0786,-1.0865,-1.0774,-1.0758,-1.0755,-1.0752,0,-1.4456,-1.4188,-1.3863,-1.3479,-1.3373,-1.3202,-1.2876,-1.2658,-1.2333,-1.2183,-1.1951,-1.175,-1.1486,-1.1438,-1.1063,-1.1137,-1.0973,-1.0818,-1.0807,-1.0762,-1.0719,-1.0737,-1.0739,-1.0725,-1.0722,-1.0724,-1.0727,0,-1.4606,-1.4162,-1.3908,-1.3759,-1.3307,-1.319,-1.2993,-1.2671,-1.2487,-1.2198,-1.2073,-1.1754,-1.1578,-1.1329,-1.1042,-1.1036,-1.0692,-1.0623,-1.0551,-1.0558,-1.049,-1.0499,-1.0463,-1.0392,-1.0392,-1.0392,-1.0393,0,-1.4572,-1.4381,-1.397,-1.3814,-1.3586,-1.3289,-1.3068,-1.2848,-1.2562,-1.2347,-1.2104,-1.1905,-1.154,-1.1292,-1.1064,-1.0783,-1.0705,-1.0568,-1.0509,-1.0589,-1.0606,-1.0477,-1.0474,-1.0388,-1.0389,-1.039,-1.0391,0,-1.4704,-1.4422,-1.4127,-1.3724,-1.3616,-1.3466,-1.3113,-1.2942,-1.2711,-1.2442,-1.236,-1.1992,-1.1687,-1.1377,-1.0962,-1.0807,-1.053,-1.0452,-1.0644,-1.061,-1.0555,-1.0563,-1.0433,-1.0396,-1.0356,-1.0357,-1.0358,0,-1.4701,-1.4549,-1.413,-1.3975,-1.3787,-1.3538,-1.3351,-1.3047,-1.2859,-1.2474,-1.2347,-1.2026,-1.1752,-1.1273,-1.096,-1.0638,-1.0547,-1.0523,-1.0497,-1.0578,-1.0539,-1.0552,-1.053,-1.0535,-1.0537,-1.0538,-1.054,0,-1.4723,-1.4589,-1.4337,-1.4032,-1.3818,-1.356,-1.3291,-1.3173,-1.2813,-1.2612,-1.2302,-1.2091,-1.1667,-1.1346,-1.0986,-1.0767,-1.0588,-1.055,-1.0515,-1.0594,-1.071,-1.0641,-1.067,-1.0555,-1.0553,-1.0552,-1.0551,-1.0551,-1.4781,-1.4632,-1.4315,-1.4036,-1.3804,-1.3557,-1.3377,-1.3124,-1.2864,-1.2504,-1.2335,-1.2021,-1.1684,-1.1184,-1.0968,-1.0708,-1.066,-1.0612,-1.0598,-1.059,-1.0607,-1.0755,-1.0641,-1.064,-1.064,-1.0639,-1.0638,0,-1.4787,-1.4569,-1.4318,-1.3954,-1.3732,-1.3594,-1.3286,-1.3105,-1.2836,-1.2544,-1.2281,-1.1917,-1.1602,-1.1264,-1.0925,-1.0781,-1.0689,-1.0702,-1.0707,-1.0658,-1.0672,-1.0734,-1.0781,-1.0781,-1.0781,-1.0781,-1.0781,-1.0781,-1.4764,-1.4503,-1.433,-1.3944,-1.3721,-1.3422,-1.3257,-1.3022,-1.2787,-1.2397,-1.2137,-1.1922,-1.1605,-1.124,-1.094,-1.0846,-1.073,-1.0766,-1.0649,-1.0668,-1.0658,-1.0648,-1.0705,-1.0744,-1.0744,-1.0654,-1.0654,-1.0653]},{"header":{"parameterUnit":"m.s-1","parameterCategory":1,"la1":30.2991,"la2":30.254,"lo1":-89.0895,"lo2":-89.0444,"dy":0.0017,"dx":0.0017,"nx":28,"ny":28,"refTime":"2023-08-26T03:00:00:Z","depth":0,"parameterNumber":3,"parameterNumberName":"V-component_of_WINDS"},"data":[0,0,0,0,0,0,0,0,0,0,0,0,0,0,0,0,0,0,0,0,0,0,0,0,0,0,0,0,0,0,0,0,0,0,0,0,0,0,0,0,0,0,0,0,0,0,0,0,0,0,0,0,0,0,0,0,0,0,0.25,0.2496,0,0.2159,0.2155,0.2151,0.2168,0.2173,0.2178,0.2182,0.1798,0.1784,0.1769,0,0,0,0,0,0,0,0,0,0,0,0,0,0.313,0.3118,0.25,0.2496,0.2492,0.2159,0.2155,0.215,0.2167,0.2173,0.2179,0.2185,0.1803,0.1785,0.1767,0,0,0,0,0,0,0,0,0,0,0,0,0,0.2828,0.3115,0.2501,0.2461,0.2454,0.216,0.2154,0.2149,0.2166,0.2173,0.2181,0.2188,0.1809,0.1787,0.1765,0.1478,0,0,0.1697,0.1687,0,0,0,0,0,0,0,0,0.2846,0.2805,0.2471,0.2463,0.2455,0.2214,0.2236,0.1922,0.2164,0.2274,0.2183,0.2191,0.1928,0.1896,0.1815,0.146,0.1444,0.1695,0.1681,0.1672,0.1665,0,0,0,0,0,0,0,0.2866,0.282,0.2364,0.2466,0.2456,0.2448,0.2414,0.2176,0.2062,0.2265,0.2266,0.2227,0.1925,0.1836,0.1806,0.1438,0.1696,0.1676,0.1662,0.1653,0.0818,0.081,0,0,0,0,0,0,0.2901,0.2837,0.2375,0.2354,0.2674,0.2431,0.2392,0.2283,0.2065,0.204,0.2221,0.2229,0.1871,0.1832,0.1792,0.1434,0.1672,0.1651,0.1638,0.0827,0.0817,0.0807,0,0,0,0,0,0,0.2915,0.286,0.2388,0.2596,0.2535,0.2412,0.2289,0.2273,0.2185,0.2032,0.2008,0.2154,0.1875,0.1824,0.1556,0.1421,0.1641,0.1621,0.0838,0.0824,0.0812,0.072,0,0,0,0,0,0,0.2933,0.2865,0.2763,0.2594,0.2525,0.2168,0.2282,0.2261,0.215,0.2158,0.1963,0.1937,0.1877,0.1589,0.1534,0.1394,0.1603,0.0849,0.0832,0.0816,0.0734,0.0705,0.0681,0,0,0,0,0,0.2955,0.2745,0.2758,0.2702,0.2397,0.2161,0.212,0.2065,0.214,0.2029,0.1931,0.1943,0.1448,0.1562,0.15,0.1351,0.0857,0.0836,0.0817,0.0746,0.0711,0.0681,0,0,0,0,0,0,0.289,0.2722,0.2734,0.2466,0.2329,0.2165,0.2025,0.2031,0.186,0.1873,0.1801,0.1757,0.1486,0.1393,0.1524,0.1057,0.116,0.1127,0.1127,0.1092,0.1066,0.1089,0.1585,0,0,0,0,0,0.2847,0.2682,0.2539,0.2315,0.2247,0.2148,0.2043,0.2014,0.1864,0.1802,0.1684,0.1528,0.1336,0.121,0.1026,0.0724,0.0674,0.059,0.0563,0.0542,0.051,0.0332,0.029,0.0742,0.0742,0.0743,0,0,0.275,0.2639,0.2536,0.2299,0.219,0.2006,0.2098,0.1903,0.1762,0.1769,0.151,0.1417,0.1237,0.0949,0.0816,0.0862,0.0376,0.0517,0.0501,0.048,0.0307,0.0265,0.0227,0.0729,0.0731,0.0733,0,0,0.2481,0.2386,0.2185,0.2075,0.1912,0.1847,0.1799,0.1634,0.1575,0.1317,0.1316,0.1142,0.0817,0.0686,0.0577,0.0257,0.0256,0.0198,0.0053,-0.012,-0.0156,-0.0188,-0.0314,-0.0356,0.0169,0.0169,0.0169,0,0.2378,0.2116,0.2078,0.1881,0.1771,0.1781,0.1568,0.146,0.1239,0.1157,0.1217,0.0805,0.0685,0.0361,0.0284,0.0199,0.013,0.0215,-0.0144,-0.0178,-0.0209,-0.033,-0.0376,0.0162,0.0163,0.0164,0.0164,0,0.1992,0.1809,0.1664,0.1462,0.1337,0.1133,0.1052,0.0927,0.0908,0.0834,0.0563,0.0422,0.0205,0.0128,0.0104,-0.0204,-0.017,-0.0126,-0.0027,-0.0258,-0.0374,-0.0419,0.0153,0.0155,0.0157,0.0159,0,0,0.1666,0.1449,0.1395,0.13,0.1121,0.0971,0.0763,0.0563,0.0451,0.0299,0.0112,-0.0163,-0.0124,-0.0249,-0.0287,-0.0437,-0.0696,-0.0378,-0.0383,-0.0441,-0.1057,-0.1096,-0.1148,-0.0691,-0.07,-0.0707,-0.1046,0,0.137,0.1014,0.0973,0.0649,0.0472,0.0478,0.0295,0.0157,0.0081,-0.009,-0.0178,-0.0376,-0.0304,-0.038,-0.0527,-0.0632,-0.0823,-0.0607,-0.0881,-0.089,-0.0845,-0.1207,-0.1248,-0.156,-0.109,-0.1097,-0.1103,0,0.0976,0.0822,0.0484,0.0325,0.0248,0.0086,-0.0106,-0.0264,-0.0425,-0.047,-0.0607,-0.0628,-0.0857,-0.0738,-0.1064,-0.0916,-0.1031,-0.11,-0.1114,-0.1151,-0.1018,-0.1265,-0.166,-0.1712,-0.1172,-0.1167,-0.1162,0,0.0759,0.0467,0.0225,0.0145,-0.0045,-0.0162,-0.0249,-0.0399,-0.052,-0.0691,-0.0772,-0.097,-0.1083,-0.1242,-0.1321,-0.1225,-0.1646,-0.1531,-0.1703,-0.1702,-0.1801,-0.1796,-0.2232,-0.1855,-0.1854,-0.1853,-0.1852,0,0.0426,0.0215,0.0124,-0.0026,-0.0266,-0.0315,-0.0555,-0.064,-0.0774,-0.0952,-0.0959,-0.1128,-0.1215,-0.1401,-0.1464,-0.1731,-0.1779,-0.1833,-0.185,-0.1839,-0.1834,-0.1923,-0.1909,-0.1866,-0.1863,-0.186,-0.1858,0,0.0138,0.0072,-0.0194,-0.0349,-0.0394,-0.0565,-0.0705,-0.0858,-0.0929,-0.1154,-0.121,-0.1329,-0.1547,-0.1637,-0.1909,-0.1952,-0.2262,-0.2256,-0.2205,-0.2213,-0.2384,-0.2372,-0.2903,-0.2981,-0.2541,-0.2545,-0.2548,0,-0.0074,-0.0235,-0.0405,-0.0518,-0.0606,-0.0789,-0.0909,-0.0967,-0.1095,-0.1291,-0.1424,-0.1638,-0.1815,-0.2168,-0.2287,-0.2497,-0.2505,-0.2676,-0.2538,-0.2524,-0.2523,-0.2517,-0.2539,-0.2706,-0.271,-0.2714,-0.2716,0,-0.045,-0.0475,-0.0641,-0.0823,-0.0964,-0.1113,-0.1258,-0.1354,-0.1436,-0.1582,-0.1799,-0.1935,-0.2208,-0.2428,-0.2644,-0.2748,-0.2755,-0.2756,-0.281,-0.2807,-0.2776,-0.2807,-0.2287,-0.2748,-0.2745,-0.2742,-0.2741,-0.2739,-0.0715,-0.0861,-0.1003,-0.1193,-0.1305,-0.1441,-0.1594,-0.1681,-0.186,-0.208,-0.2105,-0.2343,-0.2508,-0.2797,-0.2909,-0.3106,-0.3064,-0.3138,-0.3159,-0.318,-0.3197,-0.2732,-0.3144,-0.3143,-0.3143,-0.3142,-0.3141,0,-0.1101,-0.1191,-0.1363,-0.1562,-0.1714,-0.1687,-0.1848,-0.1982,-0.2186,-0.2333,-0.2504,-0.2761,-0.2974,-0.3107,-0.3326,-0.3458,-0.3467,-0.3515,-0.3513,-0.354,-0.3216,-0.3153,-0.3505,-0.3505,-0.3505,-0.3505,-0.3504,-0.3504,-0.132,-0.1568,-0.1611,-0.1919,-0.2011,-0.2235,-0.2331,-0.2462,-0.2579,-0.2861,-0.3034,-0.3114,-0.3262,-0.349,-0.369,-0.3725,-0.3812,-0.3865,-0.39,-0.3598,-0.3561,-0.3525,-0.3467,-0.388,-0.388,-0.4209,-0.4212,-0.4214]}]]